Total_Precipitation_Accumulation
0.07 0.08 0.08 0.08 0.06 0.06 0.05 0.04 0.01 0.01 0.01 0.00 0.00 0.00 0.00 0.00 0.00 0.00 0.01 0.02 0.02 0.02 0.04 0.04 0.05 0.05 0.05 0.06 0.06 0.06 0.05 0.05 0.05 0.05 0.03 0.02 0.02 0.02 0.03 0.03 0.04 0.04 0.05
0.08 0.08 0.09 0.10 0.09 0.07 0.07 0.05 0.03 0.02 0.02 0.02 0.01 0.01 0.01 0.01 0.01 0.00 0.01 0.02 0.03 0.03 0.05 0.06 0.07 0.09 0.10 0.13 0.13 0.11 0.11 0.11 0.11 0.10 0.09 0.07 0.05 0.04 0.04 0.04 0.04 0.04 0.04
0.10 0.12 0.14 0.15 0.14 0.12 0.11 0.09 0.07 0.05 0.05 0.04 0.03 0.03 0.02 0.02 0.01 0.02 0.04 0.05 0.05 0.05 0.06 0.06 0.07 0.08 0.09 0.13 0.14 0.14 0.15 0.16 0.16 0.15 0.16 0.16 0.13 0.11 0.09 0.07 0.07 0.07 0.06
0.12 0.18 0.23 0.26 0.26 0.25 0.24 0.22 0.20 0.16 0.13 0.11 0.10 0.08 0.06 0.06 0.05 0.05 0.04 0.05 0.04 0.04 0.05 0.06 0.06 0.07 0.08 0.10 0.13 0.16 0.18 0.19 0.21 0.22 0.23 0.23 0.21 0.20 0.17 0.14 0.14 0.13 0.11
0.26 0.36 0.46 0.47 0.43 0.40 0.37 0.34 0.31 0.29 0.26 0.23 0.17 0.13 0.12 0.11 0.10 0.08 0.07 0.06 0.04 0.04 0.03 0.05 0.06 0.09 0.10 0.10 0.11 0.13 0.17 0.21 0.25 0.27 0.26 0.25 0.25 0.25 0.23 0.20 0.18 0.17 0.16
0.60 0.66 0.67 0.63 0.55 0.50 0.49 0.48 0.43 0.37 0.31 0.25 0.17 0.11 0.09 0.09 0.08 0.06 0.06 0.04 0.03 0.03 0.02 0.02 0.02 0.04 0.07 0.09 0.11 0.11 0.11 0.16 0.23 0.24 0.22 0.23 0.26 0.28 0.27 0.26 0.24 0.22 0.20
1.02 0.98 0.92 0.85 0.74 0.67 0.59 0.47 0.40 0.32 0.26 0.21 0.17 0.12 0.08 0.05 0.04 0.03 0.03 0.02 0.02 0.02 0.01 0.01 0.01 0.01 0.03 0.09 0.13 0.12 0.09 0.11 0.19 0.22 0.21 0.23 0.26 0.27 0.27 0.26 0.25 0.24 0.22
1.37 1.24 1.11 0.98 0.83 0.73 0.61 0.47 0.36 0.28 0.22 0.18 0.16 0.13 0.08 0.03 0.02 0.01 0.01 0.01 0.01 0.01 0.01 0.01 0.01 0.01 0.01 0.04 0.06 0.08 0.08 0.06 0.08 0.13 0.19 0.25 0.29 0.31 0.30 0.28 0.26 0.25 0.25
1.46 1.27 1.09 0.95 0.83 0.68 0.55 0.41 0.30 0.22 0.17 0.13 0.10 0.10 0.08 0.05 0.02 0.01 0.00 0.00 0.00 0.00 0.00 0.00 0.00 0.01 0.01 0.01 0.01 0.01 0.04 0.04 0.03 0.04 0.10 0.20 0.24 0.24 0.25 0.28 0.31 0.30 0.29
1.14 0.99 0.90 0.83 0.68 0.52 0.39 0.28 0.19 0.14 0.10 0.07 0.05 0.05 0.06 0.05 0.05 0.03 0.01 0.00 0.00 0.00 0.00 0.00 0.00 0.01 0.00 0.00 0.01 0.01 0.03 0.04 0.06 0.06 0.07 0.13 0.18 0.18 0.19 0.22 0.27 0.32 0.34
0.79 0.72 0.63 0.52 0.38 0.28 0.22 0.16 0.12 0.10 0.08 0.06 0.05 0.05 0.04 0.03 0.04 0.05 0.03 0.01 0.00 0.00 0.00 0.00 0.01 0.02 0.02 0.02 0.03 0.04 0.05 0.06 0.08 0.10 0.11 0.12 0.13 0.15 0.17 0.20 0.23 0.27 0.32
0.43 0.35 0.31 0.26 0.21 0.15 0.12 0.10 0.08 0.07 0.06 0.05 0.04 0.04 0.04 0.05 0.04 0.04 0.04 0.02 0.01 0.00 0.00 0.00 0.00 0.01 0.01 0.02 0.06 0.10 0.11 0.12 0.12 0.12 0.12 0.12 0.12 0.13 0.15 0.19 0.22 0.26 0.30
0.28 0.22 0.16 0.12 0.09 0.07 0.06 0.05 0.04 0.04 0.04 0.04 0.03 0.03 0.03 0.02 0.02 0.03 0.03 0.03 0.02 0.01 0.00 0.00 0.00 0.00 0.00 0.01 0.04 0.10 0.13 0.14 0.13 0.12 0.11 0.08 0.07 0.08 0.10 0.13 0.17 0.23 0.29
0.14 0.10 0.07 0.05 0.04 0.04 0.03 0.03 0.02 0.02 0.02 0.02 0.02 0.03 0.02 0.01 0.02 0.04 0.05 0.07 0.06 0.03 0.01 0.00 0.00 0.00 0.00 0.01 0.03 0.07 0.12 0.10 0.09 0.08 0.07 0.06 0.05 0.05 0.06 0.08 0.10 0.14 0.19
0.06 0.04 0.03 0.02 0.02 0.02 0.01 0.01 0.01 0.01 0.02 0.03 0.04 0.04 0.04 0.03 0.04 0.04 0.05 0.08 0.14 0.13 0.06 0.01 0.00 0.00 0.00 0.02 0.04 0.08 0.13 0.12 0.11 0.10 0.08 0.06 0.05 0.05 0.05 0.06 0.06 0.07 0.09
0.02 0.02 0.01 0.01 0.01 0.01 0.01 0.01 0.01 0.01 0.02 0.03 0.04 0.05 0.06 0.05 0.05 0.05 0.06 0.08 0.13 0.19 0.14 0.04 0.01 0.01 0.02 0.03 0.05 0.11 0.14 0.11 0.11 0.10 0.08 0.06 0.06 0.06 0.06 0.07 0.07 0.07 0.07
0.01 0.01 0.01 0.01 0.01 0.01 0.01 0.02 0.02 0.03 0.03 0.04 0.05 0.06 0.07 0.07 0.08 0.07 0.07 0.08 0.09 0.14 0.18 0.09 0.04 0.04 0.07 0.10 0.12 0.16 0.15 0.14 0.12 0.13 0.13 0.12 0.10 0.08 0.08 0.09 0.09 0.10 0.10
0.01 0.01 0.01 0.01 0.01 0.01 0.01 0.02 0.03 0.03 0.05 0.05 0.05 0.05 0.05 0.06 0.08 0.07 0.07 0.07 0.08 0.13 0.21 0.20 0.12 0.09 0.10 0.12 0.16 0.17 0.12 0.10 0.12 0.15 0.15 0.13 0.11 0.10 0.09 0.08 0.08 0.08 0.07
0.01 0.01 0.01 0.01 0.01 0.01 0.02 0.03 0.04 0.04 0.04 0.03 0.03 0.04 0.04 0.05 0.06 0.07 0.08 0.09 0.11 0.14 0.20 0.24 0.17 0.13 0.11 0.10 0.17 0.19 0.18 0.21 0.13 0.10 0.10 0.09 0.09 0.09 0.09 0.08 0.07 0.06 0.04
0.01 0.01 0.01 0.01 0.01 0.02 0.02 0.02 0.02 0.01 0.01 0.01 0.02 0.03 0.04 0.06 0.09 0.12 0.11 0.12 0.15 0.18 0.19 0.22 0.18 0.14 0.12 0.12 0.21 0.29 0.26 0.21 0.17 0.10 0.09 0.07 0.08 0.07 0.09 0.13 0.09 0.07 0.06
0.01 0.01 0.01 0.01 0.01 0.01 0.01 0.00 0.00 0.00 0.01 0.01 0.02 0.03 0.04 0.06 0.11 0.14 0.14 0.16 0.20 0.23 0.24 0.27 0.25 0.19 0.15 0.18 0.26 0.30 0.28 0.20 0.15 0.11 0.13 0.11 0.13 0.22 0.41 0.53 0.36 0.17 0.11
0.02 0.02 0.01 0.01 0.01 0.00 0.00 0.00 0.00 0.00 0.01 0.02 0.03 0.04 0.04 0.04 0.07 0.08 0.10 0.14 0.21 0.26 0.31 0.34 0.31 0.25 0.18 0.24 0.32 0.36 0.36 0.30 0.21 0.13 0.15 0.13 0.22 0.54 0.92 1.17 0.84 0.38 0.25
0.01 0.01 0.01 0.01 0.01 0.01 0.00 0.00 0.00 0.00 0.02 0.05 0.07 0.07 0.05 0.05 0.09 0.11 0.10 0.09 0.10 0.17 0.31 0.42 0.41 0.30 0.27 0.32 0.44 0.46 0.39 0.35 0.29 0.22 0.25 0.24 0.35 0.65 0.83 1.01 0.99 0.63 0.49
0.01 0.01 0.01 0.02 0.03 0.02 0.00 0.00 0.00 0.01 0.03 0.05 0.06 0.07 0.10 0.12 0.11 0.09 0.07 0.07 0.10 0.19 0.30 0.36 0.40 0.36 0.37 0.42 0.50 0.51 0.44 0.37 0.27 0.23 0.30 0.35 0.43 0.60 0.68 0.89 1.19 1.09 0.91
0.02 0.02 0.01 0.02 0.04 0.04 0.01 0.00 0.00 0.01 0.02 0.03 0.03 0.05 0.08 0.11 0.10 0.10 0.10 0.12 0.15 0.22 0.28 0.40 0.46 0.52 0.56 0.55 0.50 0.46 0.47 0.44 0.37 0.26 0.31 0.41 0.51 0.63 0.75 1.00 1.17 1.27 1.19
0.02 0.02 0.02 0.02 0.04 0.06 0.02 0.00 0.01 0.02 0.03 0.02 0.02 0.04 0.07 0.09 0.10 0.10 0.11 0.16 0.23 0.28 0.42 0.58 0.68 0.73 0.66 0.59 0.53 0.49 0.52 0.53 0.50 0.44 0.35 0.39 0.47 0.63 0.89 1.14 1.12 1.03 1.03